Regional Weather Roundup
Issued by NWS

Home | Current Version | Previous Version | Graphics & Text | Print | Product List | Glossary On
Versions: 1 2 3 4 5 6 7 8 9 10 11 12 13 14 15 16 17 18 19 20 21 22 23 24 25 26 27 28 29 30 31 32 33 34 35 36 37 38 39 40 41 42 43 44 45 46 47 48 49 50
000
ASUS43 KMPX 250901
RWRMN
WEATHER ROUNDUP FOR MINNESOTA
NATIONAL WEATHER SERVICE TWIN CITIES/CHANHASSEN MN
400 AM CDT SUN JUN 25 2017


NOTE: "FAIR" INDICATES FEW OR NO CLOUDS BELOW 12,000 FEET WITH NO
SIGNIFICANT WEATHER AND/OR OBSTRUCTIONS TO VISIBILITY. N/A MEANS
CURRENT SKY AND/OR WEATHER CONDITIONS ARE NOT AVAILABLE.

MNZ060>063-068>070-251000-
   Twin Cities Metro

CITY           SKY/WX    TMP DP  RH WIND       PRES   REMARKS
TWIN CITIES    CLOUDY    57  47  69 NW9       30.07S
ST PAUL        MOCLDY    56  49  77 NW10      30.07F
CRYSTAL        CLOUDY    55  45  68 NW13      30.06S
BLAINE         CLOUDY    55  48  76 NW12      30.07S
LAKEVILLE        N/A     52  48  87 W6        30.08S
EDEN PRAIRIE   CLOUDY    57  47  69 NW10      30.07S
SOUTH ST PAUL  CLOUDY    56  47  71 NW6       30.07S
LAKE ELMO      CLOUDY    54  48  82 NW7       30.07S
$$
MNZ001>005-007-008-013>017-022>024-027-028-251000-
   Northwest Minnesota

CITY           SKY/WX    TMP DP  RH WIND       PRES   REMARKS
BEMIDJI        RAIN      49  48  97 NW13      30.09S
HALLOCK        CLEAR     41  39  93 NW6       30.18S
ROSEAU         CLOUDY    48  45  87 NW7       30.14S
WARROAD        CLOUDY    48  45  87 W3        30.13F
CROOKSTON      CLEAR     45  43  93 NW8       30.18S
FOSSTON        CLOUDY    46  45  93 NW9       30.15R
DETROIT LAKES  MOCLDY    48  45  87 NW16      30.15S
MOORHEAD       CLEAR     46  43  87 NW9       30.19S
PARK RAPIDS    CLOUDY    51  46  83 NW15      30.09S
MAHNOMEN       CLOUDY    48  45  88 NW10      30.14S
$$
MNZ006-009>011-018-025>026-251000-
   North Central Minnesota

CITY           SKY/WX    TMP DP  RH WIND       PRES   REMARKS
BAUDETTE       LGT RAIN  51  50  96 NW16      30.09S
FLAG ISLAND    LGT RAIN  52  46  82 N16       30.11S
INTL FALLS     LGT RAIN  52  49  89 NW8       30.05R
WASKISH        RAIN      52  50  93 N7        30.09R
BIG FORK       DRIZZLE   54  50  87 NW5       30.04F
LONGVILLE      RAIN      54  52  94 CALM      30.05R
GRAND RAPIDS   LGT RAIN  53  52  96 N5        30.04F
CRANE LAKE     CLOUDY    52  50  93 N5        30.03S
ORR            CLOUDY    52  48  87 CALM      30.00S
COOK           CLOUDY    54  52  94 CALM      30.02S
WALKER         DRIZZLE   49  48  97 NW9       30.08R
$$
MNZ012-019>021-037-251000-
   Northeast Minnesota

CITY           SKY/WX    TMP DP  RH WIND       PRES   REMARKS
DULUTH         CLOUDY    52  51  97 NW10      29.99F
ELY            CLOUDY    54  52  94 CALM      29.99F
HIBBING        CLOUDY    52  51  97 N8        30.01S
EVELETH        CLOUDY    54  49  83 N3        30.01S
DULUTH HARBOR  CLOUDY    57  52  82 W7        30.00S
TWO HARBORS    CLOUDY    57  52  82 CALM      29.97S
SILVER BAY     CLOUDY    55  52  88 CALM      29.96S
GRAND MARAIS     N/A     56  52  86 N10       29.93F
G MARAIS ARPRT CLOUDY    50  46  87 N7        29.97F
$$
MNZ029>031-032-039>041-046>048-054>057-064-251000-
   West Central Minnesota

CITY           SKY/WX    TMP DP  RH WIND       PRES   REMARKS
FERGUS FALLS   PTCLDY    48  43  81 NW10      30.15S
WHEATON        CLEAR     50  43  76 W8        30.21R
MORRIS         CLOUDY    52  45  76 NW14      30.16S
ALEXANDRIA     CLOUDY    50  47  89 NW18G24   30.14S
ELBOW LAKE     CLOUDY    49  44  83 W14       30.16S
WADENA         DRIZZLE   48  46  93 NW10      30.11S
GLENWOOD       CLOUDY    50  46  87 NW14G21   30.13F
APPLETON       CLEAR     52  43  71 NW9       30.18S
BENSON         MOCLDY    50  43  76 N12       30.17S
ORTONVILLE     CLEAR     50  43  76 W9        30.19S
MADISON        CLEAR     52  45  76 NW8       30.19S
WILLMAR        CLOUDY    52  46  82 NW16      30.15F
$$
MNZ033>034-036-042>043-049>051-058-059-251000-
   Central Minnesota

CITY           SKY/WX    TMP DP  RH WIND       PRES   REMARKS
ST CLOUD       CLOUDY    52  48  86 NW9       30.08S
SAUK CENTRE    CLOUDY    50  47  89 NW14G21   30.11S
PAYNESVILLE    CLOUDY    52  46  80 NW9G21    30.12S
AITKIN         CLOUDY    52  50  93 W3        30.03S
PINE RIVER     DRIZZLE   52  52 100 NW8       30.09S
BRAINERD       CLOUDY    53  49  86 NW9       30.07S
STAPLES        CLOUDY    48  46  93 NW13G18   30.09S
LONG PRAIRIE   CLOUDY    48  46  93 W10       30.11S
LITTLE FALLS   CLOUDY    50  46  87 W10       30.08F
LITCHFIELD     CLOUDY    54  48  82 NW14G21   30.12S
BUFFALO        CLOUDY    54  46  75 NW9G20    30.10R
MAPLE LAKE     CLOUDY    55  49  82 NW9       30.10S
HUTCHINSON     CLOUDY    54  48  81 W9        30.12S
$$
MNZ037-044-045-052-053-251000-
   East Central Minnesota

CITY           SKY/WX    TMP DP  RH WIND       PRES   REMARKS
PRINCETON      CLOUDY    54  48  82 W8        30.08S
MORA           CLEAR     50  46  87 W6        30.06S
CAMBRIDGE      CLOUDY    55  46  71 W10       30.05S
RUSH CITY      PTCLDY    50  46  87 W6        30.05S
MOOSE LAKE     CLOUDY    52  48  87 NW6       30.01S
HINCKLEY       FAIR      50  50 100 NW5       30.03F
CLOQUET        CLOUDY    52  48  87 W5        30.01S
MCGREGOR       CLOUDY    52  50  93 W6        30.03F
$$
MNZ071>073-080-081-089-090-097-098-251000-
   Southwest Minnesota

CITY           SKY/WX    TMP DP  RH WIND       PRES   REMARKS
MONTEVIDEO     PTCLDY    50  43  76 N12       30.18S
GRANITE FALLS  PTCLDY    53  46  79 W10G16    30.18F
CANBY          CLEAR     49  45  85 CALM      30.21S
MARSHALL       PTCLDY    51  42  71 NW15      30.19R
REDWOOD FALLS  CLOUDY    53  45  74 NW14      30.15S
OLIVIA         CLOUDY    52  46  82 NW12G18   30.14S
PIPESTONE      CLEAR     52  45  76 NW8       30.21S
WINDOM         PTCLDY    52  45  76 W9        30.16F
WORTHINGTON    CLEAR     50  45  83 W10       30.20S
JACKSON        CLEAR     52  45  76 NW10      30.17S
TRACY          PTCLDY    52  44  74 NW15      30.18S
SLAYTON        CLEAR     49  45  85 NW10      30.20S
$$
MNZ065>067-074>077-082>085-091>093-251000-
   South Central Minnesota

CITY           SKY/WX    TMP DP  RH WIND       PRES   REMARKS
MANKATO        PTCLDY    53  47  79 W12       30.12F
NEW ULM        CLOUDY    54  45  71 NW16G23   30.13S
ST JAMES       MOCLDY    54  45  71 W9        30.15S
FAIRMONT       PTCLDY    52  46  80 NW10      30.15S
GLENCOE        CLOUDY    55  49  81 NW10      30.10S
FARIBAULT      MOCLDY    54  48  82 W9        30.09F
OWATONNA       MOCLDY    54  48  82 W12       30.10S
WASECA         CLEAR     50  46  87 W9        30.12S
ALBERT LEA     CLEAR     52  46  82 W7        30.12S
$$
MNZ078>079-086>088-094>096-251000-
   Southeast Minnesota

CITY           SKY/WX    TMP DP  RH WIND       PRES   REMARKS
ROCHESTER      CLEAR     48  46  93 W9        30.09S
RED WING       PTCLDY    52  46  82 W5        30.06S
STANTON        PTCLDY    54  48  82 W6        30.07S
DODGE CENTER   CLEAR     52  46  82 W8        30.09S
WINONA         CLEAR     54  50  87 NW5       30.06S
AUSTIN         CLEAR     52  45  76 W9        30.10F
PRESTON        CLEAR     48  44  85 W8        30.09S
$$
ABBREVIATIONS USED IN REMARKS
   TC - TEMPERATURES IN CELSIUS
  WCI - WIND CHILL INDEX
   HX - HEAT INDEX
  VSB - VISIBILITY
$$



USA.gov is the U.S. government's official web portal to all federal, state and local government web resources and services.